COSMOS 1988 (GLONASS)

Satellite information

Favourite Embed

Satellite Type and Status

PAYLOADIN ORBIT

Key statistics

Satellite COSMOS 1988 (GLONASS) at a glance.

Uptime

13327

Days in orbit

Revolutions

≈ 2.1

Per day

Orbit

MEO

Medium Earth Orbit

Inclination

64.7

Latest

Satellite identification and parameters

Extended collection of information and parameters for COSMOS 1988 (GLONASS).

Object identification

Identified? True

Debris? False

Object name: COSMOS 1988 (GLONASS)

International designator: 1989-001B

Object number (NORAD): 19750

Object ID (CCSDS): 19750

Country: COMMONWEALTH OF INDEPENDENT STATES (CIS)

Current information (Y/N): Y

RCS size: LARGE

Orbital parameters

Period: 675.733 minutes

Inclination: 64.7432 deg

SMA: 25508.04 km

Apoapsis: 19167.662 km

Periapsis: 19092.148 km

RAAN: 84.6748 deg

Eccentricy: 0.0014802

Argument of periapsis: 220.018 deg

Mean anomaly: 327.5569 deg

Mean motion: 2.13101806 rev/day

Mean motion (dot): -0.0000003 rev/day2

B* drag term: 0.0 1/REarth

Two-line elements (TLE)

Creation date: June 30, 2025, 5:29 p.m.

Reference frame: TEME

Reference center: EARTH

Epoch: June 30, 2025, 7:27 a.m. UTC

TLE line 0: 0 COSMOS 1988 (GLONASS)

TLE line 1: 1 19750U 89001B 25181.31103814 -.00000030 00000-0 00000-0 0 9992

TLE line 2: 2 19750 64.7432 84.6748 0014802 220.0180 327.5569 2.13101806283782

Live tracking on map

Real-time ground track for satellite COSMOS 1988 (GLONASS).

In-orbit conjunctions

A list of the most updated potential collisions computed for object COSMOS 1988 (GLONASS).

Target Orbit TCA Probability of collision Miss distance Type
SL-12 R/B(2) MEO 2024-06-16 06:06:26 TBA 2863.0 (m) ROCKET BODY

Associated space launch

GLONASS navigation satellites

COSMOS 1988 (GLONASS) was lifted into orbit during the mission ‘Proton | Uragan 32 & 33’, on board a Proton space rocket.

The launch took place on Jan. 10, 1989, 2:05 a.m. from 200/39 (200L).

For more information about the launch, click the button.

Launch to space Proton | Uragan 32 & 33
Proton | Uragan 32 & 33

Agency: N/A

Status: Launch Successful

Launch date: Jan. 10, 1989, 2:05 a.m. UTC

Rocket: Proton

Launch pad: 200/39 (200L)

Location: Baikonur Cosmodrome, Republic of Kazakhstan

...

Latest news about this satellite

There are no fresh news available about this satellite. Check back as we update our databases every day.


Newsletter sign-up

Weekly statistics, charts and insights to help you stay on top of the space industry.